Probability
10 8 5 3 1 0 0 0 0 0 0 0 0 0 0 0 0 0 0 0 0 0 0 0 0 0 0 0 0 0 0 0 0 0 0 0 0 0 0 0 0 0 0 0 1 2 3 2 2
6 5 3 2 1 0 0 0 0 0 0 0 0 0 0 0 0 0 0 0 0 0 0 0 0 0 0 0 0 0 0 0 0 0 0 0 0 0 0 0 0 0 0 0 0 1 2 1 1
2 2 1 1 0 0 0 0 0 0 0 0 0 0 0 0 0 0 0 0 0 0 0 0 0 0 0 0 0 0 0 0 0 0 0 0 0 0 0 0 0 0 0 0 0 0 0 0 0
2 2 1 0 0 0 0 0 0 0 0 0 0 0 0 0 0 0 0 0 0 0 1 1 0 0 0 0 0 0 0 0 0 0 0 0 0 0 0 0 0 0 0 0 0 0 0 0 0
2 1 0 0 0 0 0 0 0 0 0 0 0 0 0 0 0 0 0 0 0 0 1 1 1 0 0 0 0 0 0 0 0 0 0 0 0 0 0 0 0 0 0 0 0 0 0 0 0
3 1 0 0 0 0 0 0 0 0 0 0 0 0 0 0 0 0 0 0 0 0 1 1 1 0 0 0 0 0 0 0 0 0 0 0 0 0 0 0 0 0 0 0 0 0 0 0 0
4 1 0 0 0 0 0 0 0 0 0 0 0 0 0 0 0 0 0 0 0 0 1 1 1 0 0 0 0 0 0 0 0 0 0 0 0 0 0 0 0 0 0 0 0 0 0 0 0
4 1 0 0 0 0 0 0 0 0 0 0 0 0 0 0 0 0 0 0 0 0 0 0 0 0 0 0 0 0 0 0 0 0 0 0 0 0 0 0 0 0 0 0 0 0 0 0 0
2 1 0 0 0 0 0 0 0 0 0 0 0 0 0 0 0 0 0 0 0 0 0 0 0 0 0 0 0 0 0 0 0 0 0 0 0 0 0 0 0 0 0 0 0 0 0 0 0
1 0 0 0 1 0 0 0 0 0 0 0 0 0 0 0 0 0 0 0 0 0 0 0 0 0 0 0 0 0 0 0 0 0 0 0 0 0 0 0 0 0 0 1 0 0 0 0 0
0 0 0 0 0 0 0 0 0 0 0 0 0 0 0 0 0 0 0 0 0 0 0 0 0 0 0 0 0 0 0 0 0 0 0 0 0 0 0 0 0 0 0 0 0 0 0 0 0
0 0 0 0 0 0 0 0 0 0 0 0 0 0 0 0 0 0 0 0 0 0 0 0 0 0 0 0 0 0 0 0 0 0 0 0 0 0 0 0 0 0 0 0 0 0 0 0 0
0 0 0 0 0 0 0 0 0 0 0 0 0 0 0 0 0 0 0 0 0 0 0 0 0 0 0 0 0 0 0 0 0 0 0 0 0 0 0 0 0 0 0 0 0 0 0 0 0
0 0 0 0 0 0 0 0 0 0 0 0 0 0 0 0 0 0 0 0 0 0 0 0 0 0 0 0 0 0 0 0 0 0 0 0 0 0 0 0 0 0 0 0 0 0 0 0 0
0 0 0 0 0 0 0 0 0 0 0 0 0 0 0 0 0 0 0 0 1 1 1 0 0 0 0 0 0 0 0 0 0 0 0 0 0 0 0 0 0 0 0 0 0 0 0 0 0
0 0 0 0 0 0 0 0 0 0 0 0 0 0 0 0 0 0 0 0 1 1 1 0 0 0 0 0 0 0 0 0 0 0 0 0 0 0 0 0 0 0 0 0 0 0 0 0 0
0 0 0 0 0 0 0 0 0 0 0 0 0 0 0 0 0 0 0 1 1 1 0 0 0 0 0 0 0 0 0 0 0 0 0 0 0 0 0 0 0 0 0 0 0 0 0 0 0
0 0 0 0 0 0 0 0 0 0 0 0 0 0 0 0 0 0 1 2 1 0 0 0 0 0 0 0 0 0 0 0 0 0 0 0 0 0 0 0 0 0 0 0 0 0 0 0 0
0 0 0 0 0 0 0 0 0 0 0 0 0 0 0 0 0 1 2 2 1 0 0 0 0 0 0 0 0 0 0 0 0 0 0 0 0 0 0 0 0 0 0 0 0 0 0 0 0
0 0 0 0 0 0 0 0 0 0 0 0 0 0 0 0 0 1 2 2 1 0 0 0 0 0 0 0 0 0 0 0 0 0 0 0 0 0 0 0 0 0 0 0 0 0 0 0 0
0 0 0 0 0 0 0 0 0 0 0 0 0 0 0 0 0 1 3 3 1 0 0 0 0 0 0 0 0 0 0 0 0 0 0 0 0 0 0 0 0 0 0 0 0 0 0 0 0
0 0 0 0 0 0 0 0 0 0 0 0 0 0 0 0 1 3 5 4 1 0 0 0 0 0 0 0 0 0 0 0 0 0 0 0 0 0 0 0 0 0 0 0 0 0 0 0 0
0 0 0 0 0 0 0 0 0 0 0 0 0 0 0 0 1 4 6 5 2 0 0 0 0 0 0 0 0 0 0 0 0 0 0 0 0 0 0 0 0 0 0 0 0 0 0 0 0
0 0 0 0 0 0 0 0 0 0 0 0 0 0 0 1 1 2 5 5 3 1 0 0 0 0 0 0 0 0 0 0 0 0 0 0 0 0 0 0 0 0 0 0 0 0 0 0 0
0 0 0 0 0 0 0 0 0 0 0 0 0 0 0 0 0 1 4 6 5 3 1 0 0 0 0 0 0 0 0 0 0 0 1 1 1 0 0 0 0 0 0 0 0 0 0 0 0
0 0 0 0 0 0 0 0 0 0 0 0 0 0 0 0 0 1 6 9 7 5 3 1 1 1 0 0 0 0 0 0 1 1 2 2 1 0 0 0 0 0 0 0 0 0 0 0 0
0 0 0 0 0 0 0 0 0 0 0 0 0 0 0 0 0 2 6 9 7 5 4 3 2 1 1 0 0 0 0 0 1 2 2 1 0 0 0 0 0 0 0 0 0 0 0 0 0
0 0 0 0 0 0 0 0 0 0 0 0 0 0 0 0 0 2 5 6 4 3 4 4 3 2 2 1 1 0 0 0 2 2 1 0 0 0 0 0 0 0 0 0 0 0 0 0 0
0 0 0 0 0 0 0 0 0 0 0 0 0 0 0 0 0 1 3 2 2 1 3 4 4 3 2 2 2 1 1 1 2 2 1 0 0 0 0 0 0 0 0 0 0 0 0 0 0
0 0 0 0 0 0 0 0 0 0 0 0 0 0 1 1 1 1 2 1 1 1 2 4 4 4 3 3 3 2 2 2 3 2 1 0 0 0 0 0 0 0 0 0 0 0 0 0 0
Wind_Speed
9 9 6 2 2 1 4 6 8 7 7 8 8 8 10 11 8 7 3 5 7 8 8 9 9 9 9 9 9 9 9 9 10 9 9 9 9 9 9 9 9 9 9 10 10 10 10 10 10
10 6 4 3 2 1 5 6 9 9 6 5 7 9 10 10 10 7 3 5 7 9 8 9 9 9 9 9 9 9 9 9 9 9 9 9 9 8 8 9 9 9 9 10 9 9 10 10 9
11 8 4 2 2 4 6 7 7 7 6 6 6 9 8 7 7 5 4 5 8 9 9 9 9 9 8 9 9 9 9 9 9 9 10 9 9 8 8 9 9 9 9 9 9 9 9 9 9
6 4 3 0 5 8 7 6 4 5 6 6 7 8 9 8 5 6 5 6 8 9 9 8 9 9 8 8 8 8 8 8 9 9 10 10 9 9 8 9 9 9 9 9 9 8 8 8 8
4 3 1 2 5 7 7 6 5 6 6 8 9 8 8 8 9 8 6 6 7 8 8 8 9 8 8 8 7 7 7 8 9 9 9 9 9 9 9 9 9 9 9 8 8 8 8 8 7
3 3 1 3 6 6 6 6 5 6 7 7 7 8 7 7 8 6 6 5 6 7 8 8 8 8 8 8 8 8 8 8 9 9 8 8 9 9 8 9 9 9 9 8 8 8 7 7 7
3 2 2 4 5 5 6 5 5 5 7 7 5 7 7 7 6 5 6 6 5 5 6 6 7 7 8 8 8 8 8 8 8 8 7 7 8 8 8 9 9 9 8 8 7 7 7 7 6
3 2 2 3 4 5 5 5 5 6 6 6 5 6 6 7 6 5 5 5 4 4 4 4 5 6 6 6 8 8 8 7 6 6 6 6 6 7 7 8 9 9 8 7 7 6 6 5 4
3 1 3 4 3 4 4 4 4 6 7 8 9 9 10 10 8 6 5 5 4 4 2 2 3 4 4 5 7 6 7 6 5 4 5 4 2 4 5 8 8 8 7 6 5 5 4 4 3
1 3 5 4 5 4 4 4 3 5 6 7 9 10 10 9 7 6 5 5 5 4 2 2 3 4 4 4 4 3 3 3 2 3 3 1 2 3 5 6 7 6 5 3 3 4 3 1 1
2 3 3 5 5 4 4 3 4 4 4 5 8 9 8 8 6 5 5 5 4 4 3 2 2 4 4 3 3 2 2 1 2 3 3 3 3 2 3 2 3 2 2 1 1 1 1 2 2
3 4 3 4 5 4 3 4 5 6 5 6 8 8 8 7 5 4 4 5 4 4 2 1 2 4 5 3 3 2 2 1 2 2 3 2 2 2 2 2 2 1 1 1 1 2 3 4 5
3 3 3 3 2 2 3 4 4 5 6 7 8 7 6 6 5 4 3 4 5 4 2 2 3 4 4 4 2 3 2 2 3 2 2 3 2 2 2 2 2 2 2 2 3 4 5 5 5
2 3 3 3 2 1 3 3 3 4 6 7 7 6 6 5 5 4 3 3 4 4 3 3 3 4 4 3 3 3 3 2 3 2 3 3 2 2 2 3 3 3 2 2 3 4 4 4 4
2 3 3 3 2 2 1 1 3 5 6 6 6 6 6 5 4 4 3 3 4 4 4 3 4 4 4 4 4 3 2 3 3 2 3 3 2 2 3 3 3 2 2 3 3 4 3 3 4
5 4 3 3 2 3 2 1 5 5 5 5 5 6 5 5 5 4 4 3 4 5 5 4 4 4 5 4 4 3 3 3 3 2 2 3 3 4 4 3 2 2 3 3 2 3 3 3 3
4 3 2 4 3 2 2 1 5 6 5 5 6 6 6 5 5 5 4 4 4 5 5 5 4 4 4 3 2 2 2 3 2 2 2 3 3 4 4 2 2 3 3 2 3 3 3 3 2
1 1 1 2 2 2 2 3 5 5 5 4 5 6 6 6 5 5 5 4 4 4 5 6 4 3 4 2 2 2 3 2 2 2 2 3 2 3 4 2 3 4 3 3 3 3 3 2 1
3 2 1 2 1 1 2 2 5 6 5 4 4 5 6 6 7 6 6 5 5 4 5 6 5 4 4 2 2 2 2 2 2 2 3 3 2 3 3 3 3 3 3 2 3 2 2 2 2
4 2 0 1 1 2 2 2 4 6 5 4 4 4 6 6 7 7 7 5 5 4 4 5 4 4 4 2 1 1 2 1 2 2 2 3 3 3 3 3 3 3 2 2 2 2 2 1 1
4 2 2 2 2 4 3 2 4 6 6 5 4 5 5 6 7 8 7 6 5 5 4 4 4 4 4 3 1 2 2 1 2 2 2 2 2 3 3 3 2 3 2 2 2 2 2 1 1
3 1 3 3 4 3 4 2 3 5 6 6 5 4 5 5 6 7 7 7 6 5 4 4 4 4 4 3 2 2 1 1 2 1 1 1 2 2 2 2 2 2 2 2 1 2 1 1 1
3 2 4 5 5 5 4 2 2 6 5 5 5 5 5 6 7 7 8 7 7 6 4 3 3 4 3 2 2 1 1 1 1 1 2 2 2 2 2 1 2 2 2 3 3 3 2 1 1
4 5 7 7 5 5 5 3 1 3 4 5 6 6 6 6 7 7 8 7 6 6 4 3 3 3 3 3 2 2 2 1 2 2 2 1 1 1 2 2 2 2 3 3 3 2 3 2 2
6 4 3 4 4 3 3 2 2 5 5 5 6 6 7 7 7 7 8 7 6 6 5 4 3 3 3 3 3 3 3 2 2 2 2 2 1 1 2 2 2 2 2 2 2 2 2 2 2
5 5 3 2 2 1 3 3 5 7 6 5 5 6 6 7 7 7 8 7 7 7 6 5 4 4 4 3 2 2 3 2 1 2 2 2 2 2 3 2 2 2 2 2 2 1 1 2 2
4 4 5 6 7 4 1 5 7 7 7 6 5 5 6 6 6 7 8 8 7 7 6 5 5 4 4 4 3 3 2 2 2 1 1 1 2 2 3 3 2 2 2 2 2 2 2 3 3
7 5 3 3 3 3 2 3 4 6 6 5 5 5 5 6 6 7 7 7 7 6 6 5 5 4 4 3 3 2 2 2 2 2 2 2 2 2 3 3 3 2 2 3 3 2 2 2 2
5 5 4 4 4 3 1 2 4 6 5 6 5 5 4 4 6 6 6 6 6 6 6 5 4 4 4 3 3 3 2 2 2 2 2 2 2 3 3 3 3 2 2 3 3 2 1 2 1
5 6 5 4 4 3 3 2 5 5 5 5 5 5 5 5 5 6 6 6 5 5 6 6 6 5 4 4 4 3 3 3 2 2 3 2 3 3 3 3 3 3 2 2 3 2 1 1 1
Wind_Direction
277 257 251 257 264 219 65 57 59 50 50 47 44 55 62 50 49 83 108 81 93 96 96 86 76 73 70 69 67 66 65 64 66 71 73 76 77 78 79 77 76 76 74 73 75 76 78 76 73
285 283 271 241 271 62 72 65 61 55 59 64 56 59 68 67 69 91 94 83 92 93 89 83 79 74 70 71 69 69 68 67 69 71 75 77 77 76 78 80 79 79 78 77 75 75 78 78 74
269 270 266 261 14 49 70 69 72 71 58 56 66 58 54 64 70 88 99 95 91 91 91 88 83 77 71 70 72 71 71 73 75 75 79 82 79 78 79 79 79 79 83 81 78 80 76 75 71
271 260 244 11 53 60 73 79 78 80 71 54 67 71 71 55 77 101 103 96 96 98 98 95 88 80 74 71 73 73 75 78 79 81 83 82 82 80 78 79 79 77 81 83 81 80 76 75 69
250 260 231 88 66 69 67 63 66 66 62 58 64 79 85 80 92 102 99 91 95 101 105 105 97 90 84 77 74 75 82 88 86 84 85 84 83 80 78 79 79 76 76 79 78 76 74 71 66
277 264 253 82 82 72 69 60 50 66 70 69 80 90 91 98 96 98 96 91 91 99 108 112 111 106 96 86 80 83 86 90 92 89 87 88 85 85 86 87 86 82 79 80 80 79 75 73 68
298 319 51 83 85 71 64 58 55 65 64 56 62 90 109 106 100 102 96 90 84 94 110 122 132 125 112 102 94 93 96 98 98 98 98 98 95 92 91 88 86 85 84 83 83 84 79 75 68
299 303 51 66 80 69 59 61 61 67 70 64 54 85 114 117 121 117 107 100 93 81 88 117 124 129 133 123 112 110 111 113 112 116 118 121 116 108 99 92 88 87 86 88 90 90 87 89 76
274 333 53 58 63 81 73 65 69 81 80 71 62 74 108 123 129 129 120 109 98 88 70 75 101 114 117 124 124 135 131 132 140 142 143 140 135 117 101 94 96 94 94 94 102 109 110 110 96
330 52 55 50 53 70 72 60 67 92 90 89 88 92 114 128 134 135 130 123 115 112 104 84 86 100 99 90 110 130 117 132 133 103 116 133 89 80 91 101 105 105 103 104 119 133 142 143 114
58 63 63 58 56 66 75 66 57 67 76 92 109 116 123 127 133 130 121 119 120 114 91 90 108 100 91 88 92 74 78 94 86 90 84 78 83 101 105 118 114 112 113 83 117 143 121 99 81
90 68 60 66 52 57 65 64 65 61 64 87 110 124 132 135 127 120 130 132 119 111 106 92 82 97 98 84 84 98 87 74 67 57 80 73 66 70 78 90 102 117 104 66 54 55 56 64 58
98 103 99 91 88 80 80 80 74 77 88 97 111 120 126 124 123 111 116 124 125 120 101 77 81 80 91 84 69 84 77 67 75 43 63 81 80 79 78 81 82 78 68 66 57 57 55 60 56
94 122 136 144 152 138 96 93 103 105 114 118 127 131 127 121 127 134 143 142 137 126 107 73 73 66 80 94 87 68 65 64 60 44 40 65 80 85 79 64 60 66 63 63 72 82 73 68 63
186 187 161 158 179 144 107 78 113 123 135 138 140 135 127 135 141 140 147 139 125 124 119 101 82 69 64 65 66 72 67 69 60 46 30 57 65 81 87 78 69 70 68 64 64 75 75 78 73
219 214 183 153 169 165 199 93 117 139 149 147 148 142 142 149 151 143 145 140 129 122 114 104 89 84 70 63 56 63 55 56 54 45 27 51 57 65 71 66 67 64 71 73 76 69 71 65 61
219 227 180 149 171 188 169 117 136 152 163 162 159 156 155 159 152 144 143 147 131 133 127 119 98 87 81 75 83 72 65 61 54 36 35 40 53 74 86 70 69 74 68 63 74 70 67 72 69
247 246 156 131 153 168 153 160 153 164 178 165 163 161 158 161 155 151 145 139 135 134 130 120 109 101 94 69 70 66 55 54 56 45 50 45 40 63 82 86 76 73 68 56 64 76 72 82 78
296 300 48 100 126 204 185 181 159 162 174 174 175 165 162 160 154 150 144 142 137 141 132 128 140 132 111 82 83 87 75 58 54 44 49 40 48 65 74 75 80 80 82 75 78 82 79 72 90
263 275 274 117 162 252 213 198 165 162 171 180 184 170 159 153 147 146 146 148 146 140 136 142 143 132 123 124 130 123 108 92 91 52 48 36 40 56 72 83 93 91 92 75 64 78 74 37 62
258 284 299 299 263 244 227 227 183 160 160 170 181 166 157 156 155 154 155 153 150 150 152 146 142 136 131 126 90 74 71 62 79 79 63 36 46 49 48 62 91 106 103 95 77 70 77 41 3
269 287 287 282 269 256 214 236 185 158 163 168 172 164 156 156 153 152 158 153 155 153 151 150 146 135 124 124 114 124 137 114 107 110 117 97 88 73 54 40 61 93 95 105 108 93 79 74 15
286 285 271 268 267 272 246 241 179 153 161 166 167 164 152 154 153 156 160 154 154 148 146 145 141 128 125 132 130 152 124 112 105 101 110 87 88 88 85 46 49 70 89 91 77 78 57 65 63
263 255 252 247 256 259 243 213 153 140 139 149 155 158 154 153 155 156 151 146 147 138 138 143 136 135 140 152 163 170 141 127 122 129 117 91 97 91 85 68 55 65 68 77 76 80 68 55 53
243 257 251 213 211 226 194 161 107 107 110 124 141 150 156 153 152 151 146 148 148 144 150 154 150 151 161 175 181 173 165 164 157 145 135 133 117 114 109 84 66 79 79 84 75 67 84 80 65
246 255 279 299 284 240 173 140 109 103 102 108 124 137 147 148 148 151 151 150 149 152 158 161 165 166 170 177 177 171 166 170 158 156 156 157 148 138 130 111 92 92 96 90 83 67 75 85 77
258 259 272 282 290 288 164 120 114 108 114 115 122 129 135 140 148 150 149 151 153 159 163 167 167 164 169 173 177 187 169 155 154 160 145 132 126 134 130 131 122 110 109 103 89 67 59 65 67
247 273 281 277 295 282 211 160 141 138 138 131 123 121 129 140 146 143 146 152 157 157 163 170 165 163 167 169 178 161 152 163 159 156 148 128 126 123 133 134 130 134 122 113 97 80 65 77 80
223 238 254 268 270 288 334 64 82 130 134 131 127 124 123 133 138 140 144 149 152 157 165 167 163 159 162 167 161 150 153 158 148 148 150 150 148 147 148 143 138 137 138 127 114 132 132 106 113
252 260 260 264 275 280 290 96 86 92 104 117 120 119 120 126 127 134 140 144 152 165 170 169 169 165 164 165 160 157 163 168 162 162 168 168 158 161 165 151 146 152 153 136 135 136 109 110 118